Weather History for KMVY - January, 2014

Change the Weather History Date:

Wednesday, January 15, 2014

  Actual Average Record
Temperature  
Mean Temperature 37 °F -  
Max Temperature 48 °F 37 °F 54 °F (1950)
Min Temperature 26 °F 20 °F -4 °F (2000)
Degree Days  
Heating Degree Days 28    
Moisture  
Dew Point 35 °F    
Average Humidity 91    
Maximum Humidity 100    
Minimum Humidity 58    
Precipitation  
Precipitation 0.00 in - - ()
Sea Level Pressure  
Sea Level Pressure 29.96 in    
Wind  
Wind Speed 3 mph (South)    
Max Wind Speed 12 mph    
Max Gust Speed -    
Visibility 4 miles    
Events Fog    
Averages and records for this station are not official NWS values.
T = Trace of Precipitation, MM = Missing Value Source: NWS Daily Summary

Daily Weather History Graph

Daily Weather History Graph

Search for Another Location

Airport or City:

Trip Planner

Search our weather history database for the weather conditions in past years. The results will help you decide how hot, cold, wet, or windy it might be!

Date:

Astronomy

Jan. 15, 2014 Rise Set
Actual Time 7:06 AM EST 4:37 PM EST
Civil Twilight 6:35 AM EST 5:08 PM EST
Nautical Twilight 6:01 AM EST 5:42 PM EST
Astronomical Twilight 5:28 AM EST 6:15 PM EST
Moon 4:33 PM EST (1/15) 6:19 AM EST (1/15)
Length of Visible Light 10h 32m
Length of Day
9h 31m
Full, 100% of the Moon is Illuminated
Jan 15
Full
Jan 15
Full
Jan 24
Last Quarter
Jan 30
New
Feb 6
First Quarter

Hourly Weather History & Observations

Time (EST) Temp. Windchill Dew Point Humidity Pressure Visibility Wind Dir Wind Speed Gust Speed Precip Events Conditions
12:53 AM 42.1 °F 37.7 °F 39.9 °F 92% 29.79 in 0.5 mi WNW 6.9 mph - N/A   Clear
1:53 AM 41.0 °F 39.0 °F 39.0 °F 93% 29.82 in 0.5 mi West 3.5 mph - N/A   Clear
2:53 AM 39.9 °F 35.8 °F 37.9 °F 93% 29.87 in 0.5 mi West 5.8 mph - N/A   Clear
3:53 AM 37.0 °F - 36.0 °F 96% 29.92 in 0.5 mi Calm Calm - N/A   Clear
4:53 AM 36.0 °F 33.3 °F 35.1 °F 97% 29.96 in 0.5 mi SW 3.5 mph - N/A   Clear
5:53 AM 32.0 °F 27.5 °F 28.9 °F 88% 29.98 in 0.5 mi SSW 4.6 mph - N/A   Clear
6:53 AM 32.0 °F - 30.9 °F 96% 30.00 in 0.5 mi Calm Calm - N/A   Clear
7:01 AM 30.2 °F - 28.4 °F 93% 30.00 in 4.0 mi Calm Calm - N/A   Clear
7:06 AM 28.4 °F - 28.4 °F 100% 29.99 in 1.5 mi Calm Calm - N/A   Clear
7:12 AM 26.6 °F - 26.6 °F 100% 30.00 in 0.2 mi Calm Calm - N/A Fog Light Freezing Fog
7:30 AM 28.4 °F - 26.6 °F 93% 29.99 in 0.2 mi Calm Calm - N/A Fog Light Freezing Fog
7:53 AM 28.9 °F - 28.9 °F 100% 30.00 in 0.2 mi Calm Calm - N/A Fog Light Freezing Fog
8:00 AM 30.2 °F - 30.2 °F 100% 30.01 in 0.5 mi Calm Calm - N/A Fog Light Freezing Fog
8:05 AM 30.2 °F - 30.2 °F 100% 30.01 in 2.0 mi Calm Calm - N/A   Clear
8:13 AM 33.8 °F - 33.8 °F 100% 30.02 in 3.0 mi Calm Calm - N/A   Clear
8:20 AM 35.6 °F - 33.8 °F 93% 30.02 in 1.5 mi Calm Calm - N/A   Clear
8:27 AM 35.6 °F - 33.8 °F 93% 30.02 in 0.2 mi Calm Calm - N/A Fog Fog
8:35 AM 37.4 °F - 37.4 °F 100% 30.03 in 1.0 mi Calm Calm - N/A   Clear
8:38 AM 39.2 °F - 37.4 °F 93% 30.03 in 4.0 mi Calm Calm - N/A   Clear
8:53 AM 39.0 °F 36.8 °F 37.0 °F 93% 30.03 in 10.0 mi WSW 3.5 mph - N/A   Clear
9:53 AM 44.1 °F - 37.9 °F 79% 30.04 in 10.0 mi Calm Calm - N/A   Clear
10:53 AM 46.9 °F - 35.1 °F 63% 30.05 in 10.0 mi South 4.6 mph - N/A   Clear
11:53 AM 48.0 °F - 35.1 °F 61% 30.01 in 10.0 mi South 5.8 mph - N/A   Clear
12:53 PM 48.0 °F - 34.0 °F 58% 29.99 in 10.0 mi South 8.1 mph - N/A   Clear
1:53 PM 48.0 °F - 36.0 °F 63% 29.98 in 10.0 mi South 11.5 mph - N/A   Scattered Clouds
2:53 PM 46.0 °F 41.4 °F 37.9 °F 73% 29.99 in 10.0 mi South 9.2 mph - N/A   Clear
3:53 PM 44.1 °F 40.8 °F 39.9 °F 85% 29.96 in 10.0 mi SSE 5.8 mph - N/A   Clear
4:53 PM 43.0 °F 39.5 °F 39.0 °F 86% 29.96 in 10.0 mi South 5.8 mph - N/A   Partly Cloudy
5:11 PM 42.8 °F 40.1 °F 39.2 °F 87% 29.96 in 10.0 mi South 4.6 mph - N/A   Mostly Cloudy
5:24 PM 42.8 °F - 39.2 °F 87% 29.96 in 10.0 mi Calm Calm - N/A   Scattered Clouds
5:53 PM 41.0 °F - 37.9 °F 89% 29.96 in 8.0 mi Calm Calm - N/A   Clear
6:07 PM 39.2 °F - 37.4 °F 93% 29.96 in 6.0 mi Calm Calm - N/A   Scattered Clouds
6:14 PM 37.4 °F - 35.6 °F 93% 29.96 in 2.5 mi Calm Calm - N/A   Mostly Cloudy
6:30 PM 39.2 °F 37.0 °F 37.4 °F 93% 29.95 in 7.0 mi ESE 3.5 mph - N/A   Overcast
6:53 PM 39.9 °F - 37.9 °F 93% 29.96 in 6.0 mi Calm Calm - N/A   Mostly Cloudy
7:09 PM 39.2 °F - 37.4 °F 93% 29.95 in 2.5 mi Calm Calm - N/A   Scattered Clouds
7:16 PM 39.2 °F - 37.4 °F 93% 29.94 in 0.8 mi Calm Calm - N/A   Scattered Clouds
7:28 PM 35.6 °F 32.8 °F 35.6 °F 100% 29.94 in 0.8 mi North 3.5 mph - N/A   Mist
7:53 PM 37.0 °F 34.5 °F 36.0 °F 96% 29.95 in 0.5 mi North 3.5 mph - N/A Fog Fog
8:53 PM 34.0 °F 29.8 °F 34.0 °F 100% 29.94 in 0.2 mi East 4.6 mph - N/A Fog Fog
9:05 PM 35.6 °F - 35.6 °F 100% 29.93 in 0.2 mi Calm Calm - N/A Fog Fog
9:21 PM 35.6 °F 32.8 °F 35.6 °F 100% 29.92 in 0.2 mi East 3.5 mph - N/A Fog Fog
9:53 PM 37.0 °F 34.5 °F 36.0 °F 96% 29.91 in 0.2 mi ENE 3.5 mph - N/A Fog Fog
10:02 PM 37.4 °F 33.8 °F 35.6 °F 93% 29.90 in 0.2 mi ENE 4.6 mph - N/A Fog Fog
10:09 PM 37.4 °F 34.9 °F 35.6 °F 93% 29.91 in 0.2 mi NNE 3.5 mph - N/A Fog Fog
10:53 PM 37.0 °F - 37.0 °F 100% 29.89 in 0.2 mi Calm Calm - N/A Fog Fog
11:53 PM 37.0 °F - 36.0 °F 96% 29.87 in 0.2 mi Calm Calm - N/A Fog Fog